SCP
0 0 0 0 0 0 1 1 1 1 1 1 1 0 0 0 0 0 0 0 0 0 0 0 0 0 0 0 0 0 0 0 0 0 0 0 0 0 0 0 0 0 0
0 0 0 0 0 0 1 1 1 1 1 0 0 0 0 0 0 0 0 0 0 0 0 0 0 0 0 0 0 0 0 0 0 0 0 0 0 0 0 0 0 0 0
0 0 0 0 0 0 0 0 0 0 0 0 0 0 0 0 0 0 0 0 0 0 0 0 0 0 0 0 0 0 0 0 0 0 0 0 0 0 0 0 0 0 0
0 0 0 0 0 0 0 0 0 0 0 0 0 0 0 0 0 0 0 0 0 0 0 0 0 0 0 0 0 0 0 0 0 0 0 0 0 0 0 0 0 0 0
0 0 0 0 0 0 0 0 0 0 0 0 0 0 0 0 0 0 0 0 0 0 0 0 0 0 0 0 0 0 0 0 0 0 0 0 0 0 0 0 0 0 0
0 0 0 0 0 0 0 0 0 0 0 0 0 0 0 0 0 0 0 0 0 0 0 0 0 0 0 0 0 0 0 0 0 0 0 0 0 0 0 0 0 0 0
0 0 0 0 0 0 0 0 0 0 0 0 0 0 0 0 0 0 0 0 0 0 0 0 0 0 0 0 0 0 0 0 0 0 0 0 0 0 0 0 0 0 0
0 0 0 0 0 0 0 0 0 0 0 0 0 0 0 0 0 0 0 0 0 0 0 0 0 0 0 0 0 0 0 0 0 0 0 0 0 0 0 0 0 0 0
0 0 0 0 0 0 0 0 0 0 0 0 0 0 0 0 0 0 0 0 0 0 0 0 0 0 0 0 0 0 0 0 0 0 0 0 0 0 0 0 0 0 0
0 0 0 0 0 0 0 0 0 0 0 0 0 0 0 0 0 0 0 0 0 0 0 0 0 0 0 0 0 0 0 0 0 0 0 0 0 0 0 0 0 0 0
0 0 0 0 0 0 0 0 0 0 0 0 0 0 0 0 0 0 0 0 0 0 0 0 0 0 0 0 0 0 0 0 0 0 0 0 0 0 0 0 0 0 0
0 0 0 0 0 0 0 0 0 0 0 0 0 0 0 0 0 0 0 0 0 0 0 0 0 0 0 0 0 0 0 0 0 0 0 0 0 0 0 0 0 0 0
0 0 0 0 0 0 0 0 0 0 0 0 0 0 0 0 0 0 0 0 0 0 0 0 0 0 0 0 0 0 0 0 0 0 0 0 0 0 0 0 0 0 0
0 0 0 0 0 0 0 0 0 0 0 0 0 0 0 0 0 0 0 0 0 0 0 0 0 0 0 0 0 0 0 0 0 0 0 0 0 0 0 0 0 0 0
0 0 0 0 0 0 0 0 0 0 0 0 0 0 0 0 0 0 0 0 0 0 0 0 0 0 0 0 0 0 0 0 0 0 0 0 0 0 0 0 0 0 0
0 0 0 0 0 0 0 0 0 0 0 0 0 0 0 0 0 0 0 0 0 0 0 0 0 0 0 0 0 0 0 0 0 0 0 0 0 0 0 0 0 0 0
0 0 0 0 0 0 0 0 0 0 0 0 0 0 0 0 0 0 0 0 0 0 0 0 0 0 0 0 0 0 0 0 0 0 0 0 0 0 0 0 0 0 0
0 0 0 0 0 0 0 0 0 0 0 0 0 0 0 0 0 0 0 0 0 0 0 0 0 0 0 0 0 0 0 0 0 0 0 0 0 0 0 0 0 0 0
0 0 0 0 0 0 0 0 0 0 0 0 0 0 0 0 0 0 0 0 0 0 0 0 0 0 0 0 0 0 0 0 0 0 0 0 0 0 0 0 0 0 0
0 0 0 0 0 0 0 0 0 0 0 0 0 0 0 0 0 0 0 0 0 0 0 0 0 0 0 0 0 0 0 0 0 0 0 0 0 0 0 0 0 0 0
0 0 0 0 0 0 0 0 0 0 0 0 0 0 0 0 0 0 0 0 0 0 0 0 0 0 0 0 0 0 0 0 0 0 0 0 0 0 0 0 0 0 0
0 0 0 0 0 0 0 0 0 0 0 0 0 0 0 0 0 0 0 0 0 0 0 0 0 0 0 0 0 0 0 0 0 0 0 0 0 0 0 0 0 0 0
0 0 0 0 0 0 0 0 0 0 0 0 0 0 0 0 0 0 0 0 0 0 0 0 0 0 0 0 0 0 0 0 0 0 0 0 0 0 0 0 0 0 0
0 0 0 0 0 0 0 0 0 0 0 0 0 0 0 0 0 0 0 0 0 0 0 0 0 0 0 0 0 0 0 0 0 0 0 0 0 0 0 0 0 0 0
0 0 0 0 0 0 0 0 0 0 0 0 0 0 0 0 0 0 0 0 0 0 0 0 0 0 0 0 0 0 0 0 0 0 0 0 0 0 0 0 0 0 0
0 0 0 0 0 0 0 0 0 0 0 0 0 0 0 0 0 0 0 0 0 0 0 0 0 0 0 0 0 0 0 0 0 0 0 0 0 0 0 0 0 0 0
Wind_Speed
4 4 4 4 4 3 3 3 3 3 2 3 3 3 3 3 3 3 3 3 3 3 3 3 4 4 3 3 3 4 4 5 7 6 5 5 6 6 6 6 6 6 6
4 4 4 4 4 4 4 3 3 3 3 3 3 3 3 3 3 3 4 4 4 4 4 4 4 3 4 4 4 4 4 5 6 8 6 5 6 6 7 7 6 5 6
4 5 4 4 4 4 4 4 3 3 3 3 3 3 3 3 3 4 4 4 4 4 4 4 4 4 5 4 5 5 4 4 5 6 7 5 5 5 6 6 6 6 6
5 5 5 5 5 5 4 4 4 4 4 4 4 4 4 3 4 4 4 4 4 4 4 4 5 5 5 5 5 5 5 5 5 5 6 5 5 5 5 5 5 5 6
5 5 5 4 4 4 3 3 3 3 3 3 3 3 3 3 3 4 4 4 4 4 4 4 4 4 5 5 4 5 4 4 4 5 5 5 5 4 5 5 6 6 6
5 5 4 4 4 4 4 3 3 3 3 3 3 3 3 3 4 5 4 4 4 4 4 4 4 4 4 7 7 7 6 5 5 5 5 6 7 6 5 5 5 6 5
5 4 4 4 4 4 3 3 3 3 3 3 3 3 4 4 5 6 6 4 4 4 4 4 3 3 4 5 6 7 7 7 8 6 7 7 7 6 6 7 7 6 7
4 4 4 4 4 4 4 4 3 3 3 3 3 4 4 4 5 5 5 5 4 5 4 5 5 5 4 5 4 5 5 6 7 6 7 7 6 6 6 7 7 6 6
4 4 4 4 4 4 4 4 3 3 3 3 3 3 4 4 5 5 5 3 4 4 4 4 5 5 6 6 5 5 5 6 6 7 8 8 8 8 6 4 4 4 5
4 4 4 4 5 5 5 4 3 3 3 2 3 3 4 4 4 5 5 3 4 4 4 4 5 6 6 6 5 5 6 6 5 5 5 6 6 6 6 5 5 5 5
2 2 3 4 4 4 4 3 3 3 2 3 3 3 3 4 5 5 5 3 4 4 4 4 4 7 7 7 7 6 7 6 5 5 4 4 4 4 4 4 4 5 5
2 2 3 3 3 3 3 3 3 3 3 3 3 3 3 3 4 5 7 6 5 5 5 4 4 7 8 8 7 7 7 6 4 4 4 4 4 4 4 4 5 6 6
2 2 2 2 2 2 3 3 3 3 3 3 3 3 3 3 4 6 7 8 7 5 4 6 6 7 7 6 7 7 5 4 4 4 5 5 5 5 4 4 5 5 6
2 2 2 2 2 2 2 3 3 4 4 4 4 4 3 3 3 3 3 4 5 5 4 4 5 6 6 5 5 5 4 4 4 5 5 5 4 4 4 4 4 4 5
2 2 2 2 2 2 3 3 4 4 4 4 4 4 4 5 5 6 4 4 4 4 3 2 3 3 4 4 4 4 3 4 4 4 5 5 5 5 5 4 4 4 5
2 2 2 2 2 2 2 2 4 5 5 7 7 6 5 7 7 7 8 8 8 6 3 4 4 4 5 5 5 4 4 4 4 5 5 5 5 5 5 5 5 5 6
3 3 2 2 3 3 3 3 2 2 4 6 7 7 7 8 8 8 8 8 7 6 4 5 5 5 5 5 5 5 5 5 4 5 5 5 5 5 5 5 5 5 6
3 3 3 3 3 3 3 3 3 3 3 3 4 7 7 7 7 8 7 5 4 5 5 5 5 5 5 5 5 5 5 5 5 5 5 5 5 6 6 6 6 6 6
3 2 3 2 2 2 3 3 3 3 3 3 3 3 4 6 6 6 5 4 5 5 5 5 5 5 5 5 5 5 5 5 6 5 5 6 5 6 6 6 6 7 7
3 3 3 3 2 2 3 3 3 3 3 4 4 3 2 2 3 4 4 4 5 5 5 5 5 5 5 5 5 5 6 6 6 6 6 6 6 6 7 8 7 6 6
3 3 3 3 3 3 3 3 3 3 4 4 4 4 5 4 4 5 5 5 5 5 5 5 5 6 6 5 5 6 7 6 6 6 6 6 6 6 6 6 6 6 6
3 3 3 3 3 3 3 3 4 4 4 5 4 4 6 5 5 5 5 5 5 5 5 5 5 5 5 5 6 6 7 7 7 6 6 6 6 6 6 6 6 6 6
3 3 3 3 3 3 3 3 4 4 5 5 5 4 4 5 5 6 6 6 5 5 5 5 6 6 5 5 6 7 7 8 7 7 7 6 6 6 6 7 8 7 7
3 4 3 3 3 3 4 4 4 5 5 5 5 5 5 5 6 6 6 6 5 5 5 5 6 8 10 8 6 7 7 8 7 7 9 8 7 7 7 7 7 8 7
3 4 4 4 4 4 4 4 5 5 5 5 5 5 5 6 6 6 6 6 6 6 7 7 6 7 9 11 10 8 9 11 9 7 7 7 9 9 8 8 7 7 7
4 4 4 4 4 4 4 5 5 5 5 5 5 5 6 6 6 6 6 6 6 6 7 6 8 9 10 9 11 11 11 11 10 10 8 7 8 7 7 6 8 7 7
Wind_Direction
187 188 188 191 190 191 198 201 201 198 193 198 198 200 206 211 216 219 229 232 236 244 245 250 258 259 256 258 256 255 253 257 268 281 283 288 288 290 291 286 285 286 286
186 183 188 189 185 190 202 206 202 204 203 209 210 210 215 218 219 221 230 236 240 245 249 251 256 256 254 253 251 254 255 255 265 280 286 289 287 289 292 292 291 289 287
183 183 188 189 191 199 205 203 202 205 205 205 208 214 220 222 223 229 234 239 244 250 253 252 256 255 256 257 258 258 258 259 261 272 284 291 291 294 297 294 294 292 291
184 188 195 199 200 203 203 200 202 203 205 207 211 217 221 224 226 230 237 244 248 255 258 256 254 251 256 259 258 258 262 264 262 263 272 281 287 296 296 297 299 297 293
187 196 206 204 201 198 199 200 200 204 210 212 215 223 226 228 228 234 239 242 245 254 258 257 256 260 264 262 263 263 260 260 261 265 269 277 282 290 291 297 291 298 294
192 202 206 199 196 199 199 197 198 205 210 211 216 221 227 233 240 237 241 241 241 247 255 259 260 254 256 263 266 265 264 256 259 265 272 273 281 287 293 289 286 293 292
197 202 199 198 198 199 195 197 204 207 208 216 221 226 234 240 238 238 237 243 242 246 251 255 259 261 258 259 262 260 257 258 259 264 267 271 279 282 285 283 277 276 280
201 205 201 200 201 195 193 203 209 209 212 219 221 228 239 246 243 244 240 240 245 248 248 251 256 263 260 264 264 260 259 264 266 262 263 272 277 283 276 277 280 283 284
204 209 206 202 200 197 201 207 207 204 212 218 222 225 234 245 240 243 241 239 247 255 258 257 258 262 264 262 260 261 267 276 280 273 275 280 286 289 291 279 271 276 285
213 213 208 202 202 206 210 208 204 203 213 214 228 234 238 249 248 244 239 234 245 256 260 259 258 263 268 259 255 258 264 274 280 280 276 278 278 276 276 266 264 262 276
204 194 198 203 208 209 208 202 196 196 205 219 235 247 248 252 254 249 243 237 241 252 257 259 259 262 266 266 264 262 266 277 275 272 273 274 274 269 266 265 264 260 264
172 180 193 200 202 199 195 193 190 195 206 220 235 256 258 257 258 256 251 248 254 249 254 260 264 268 268 270 268 269 275 276 267 266 267 268 269 271 276 278 275 272 270
162 185 190 188 196 194 196 195 195 201 214 225 232 247 259 259 259 258 257 256 255 254 259 268 275 274 273 269 268 274 271 259 255 256 260 266 271 276 280 281 280 276 276
177 197 189 188 199 199 205 205 208 211 219 227 235 245 256 259 257 256 254 255 253 254 264 272 271 271 269 273 272 267 260 257 257 259 266 274 278 272 268 273 278 281 283
183 193 197 198 200 207 216 222 224 229 228 232 238 240 245 253 252 255 259 257 255 256 266 263 261 258 254 257 259 260 259 257 258 263 265 266 266 266 267 269 268 269 270
187 202 206 206 203 206 215 241 244 249 252 250 252 254 259 263 267 257 259 263 264 259 254 249 250 251 253 258 261 263 263 260 261 260 259 261 263 264 268 267 265 263 268
203 209 208 206 207 209 212 218 245 260 251 254 255 258 263 266 266 265 263 263 258 248 242 247 249 250 253 255 257 260 262 264 265 262 261 261 262 266 268 267 265 265 268
214 213 213 215 215 216 219 224 227 237 256 266 260 258 263 267 268 269 266 263 254 242 242 248 251 254 255 256 257 261 264 265 260 260 261 261 260 261 263 265 264 264 268
211 217 215 218 220 223 226 227 230 236 247 260 273 267 264 270 271 267 260 247 249 250 248 251 253 253 255 256 258 258 258 259 259 259 258 259 257 258 259 260 263 265 265
216 217 212 213 214 217 220 223 229 236 245 253 259 266 274 262 260 261 250 247 249 253 253 254 255 255 255 254 255 254 254 254 253 251 253 254 253 253 256 258 258 261 263
218 214 204 211 218 218 219 224 229 234 241 251 259 261 265 266 261 260 257 250 249 251 253 255 256 256 253 252 251 251 252 253 251 250 251 251 251 252 254 254 255 257 261
215 213 211 216 223 225 229 232 235 240 246 254 262 265 267 261 259 260 260 260 258 255 255 255 256 254 250 248 248 249 250 251 249 247 249 250 250 251 253 252 250 252 254
216 216 219 222 226 227 231 235 238 243 248 252 258 262 260 257 259 261 264 266 266 263 260 254 255 256 252 248 246 245 248 249 249 248 248 249 248 248 248 250 250 253 253
221 222 225 227 229 230 233 236 239 242 247 252 257 259 259 260 262 264 267 268 268 266 262 257 257 259 259 258 254 250 250 253 253 246 243 245 248 249 249 248 249 250 253
219 223 226 229 231 236 240 243 245 247 249 252 255 259 263 264 265 266 268 267 268 266 265 264 261 260 260 259 258 257 258 259 257 250 241 238 241 243 243 245 246 249 251
222 226 232 235 237 238 242 246 250 252 254 254 255 258 261 264 265 266 268 268 268 268 268 266 263 264 267 266 263 263 262 258 252 244 236 235 236 238 236 240 245 248 250